Location: Kitt Peak
(31.9639°N, 111.5992°W)
Time: 00:40:48
(UTC-07:00)

N. Korean satellite - Visible Passes

Search period start: 25 November 2017 00:00
Search period end: 05 December 2017 00:00
Orbit: 460 x 514 km, 97.2° (Epoch: 24 November)

Date Brightness Start Highest point End Pass type
(mag) Time Alt. Az. Time Alt. Az. Time Alt. Az.
25 Nov 6.9 18:42:38 10° S 18:46:05 65° W 18:49:38 10° NNW visible
26 Nov 10.0 06:15:46 10° ENE 06:17:58 15° E 06:20:11 10° SE visible
26 Nov 6.6 18:19:12 10° SSE 18:22:37 52° ENE 18:26:08 10° N visible
27 Nov 7.6 17:56:21 10° SE 17:59:14 24° ENE 18:02:11 10° NNE visible
27 Nov 9.8 19:30:53 10° SW 19:32:43 14° W 19:34:34 10° WNW visible
28 Nov 8.6 19:06:01 10° SSW 19:09:05 28° W 19:12:15 10° NW visible
29 Nov 9.0 06:37:42 10° NE 06:41:03 30° E 06:44:23 10° SSE visible
29 Nov 6.9 18:42:03 10° S 18:45:32 66° W 18:49:08 10° NNW visible
30 Nov 9.9 06:15:15 10° ENE 06:17:27 15° E 06:19:37 10° SE visible
30 Nov 6.6 18:18:37 10° SSE 18:22:03 52° ENE 18:25:36 10° N visible
01 Dec 7.6 17:55:44 10° SE 17:58:39 24° ENE 18:01:38 10° NNE visible
01 Dec 9.8 19:30:14 10° SW 19:32:08 14° W 19:34:05 10° WNW visible
02 Dec 8.6 19:05:22 10° SSW 19:08:30 29° W 19:11:42 10° NW visible
03 Dec 9.0 06:37:09 10° NE 06:40:28 30° E 06:43:46 10° SSE visible
03 Dec 6.9 18:41:23 10° S 18:44:55 67° W 18:48:34 10° NNW visible
04 Dec 9.9 06:14:41 10° ENE 06:16:51 15° E 06:18:58 10° SE visible
04 Dec 6.7 18:17:57 10° SSE 18:21:25 52° ENE 18:25:00 10° N visible
